SM4TUV Weather Reports


Display with metric or nautical units.
time (UTC)temp
F
wind
direction
speed
MPH
gust
MPH
rain 1hr
in
rain 24hr
in
rain mn
in
humidity
%
barometer
mb
20260508151130 65 238 7.0 13.0 0.00 0.00 0.00 21 989.0
20260508150229 65 259 6.0 9.0 0.00 0.00 0.00 23 989.1
20260508145329 64 224 9.0 13.0 0.00 0.00 0.00 22 989.1
20260508144430 63 183 10.0 15.0 0.00 0.00 0.00 24 989.1
20260508143529 63 134 12.0 32.0 0.00 0.00 0.00 23 989.2
20260508142629 63 175 7.0 15.0 0.00 0.00 0.00 23 989.2
20260508141729 63 277 6.0 11.0 0.00 0.00 0.00 23 989.3
20260508140829 64 290 6.0 9.0 0.00 0.00 0.00 23 989.3
20260508135929 64 209 7.0 11.0 0.00 0.00 0.00 23 989.4
20260508135029 64 264 8.0 12.0 0.00 0.00 0.00 23 989.4
20260508134129 64 253 10.0 16.0 0.00 0.00 0.00 21 989.7
20260508133229 63 186 12.0 16.0 0.00 0.00 0.00 22 989.6
20260508132329 63 221 11.0 13.0 0.00 0.00 0.00 21 989.7
20260508131429 63 210 9.0 13.0 0.00 0.00 0.00 21 989.7
20260508125629 62 193 9.0 15.0 0.00 0.00 0.00 25 989.7
20260508124729 62 196 12.0 17.0 0.00 0.00 0.00 25 989.8
20260508123829 62 195 8.0 12.0 0.00 0.00 0.00 26 989.7
20260508122929 62 182 11.0 16.0 0.00 0.00 0.00 25 989.8
20260508122029 63 172 8.0 15.0 0.00 0.00 0.00 25 989.9
20260508121129 63 216 9.0 10.0 0.00 0.00 0.00 26 989.9
20260508120229 62 222 6.0 9.0 0.00 0.00 0.00 25 989.9
20260508115329 60 198 9.0 13.0 0.00 0.00 0.00 25 990.0
20260508114429 61 199 11.0 15.0 0.00 0.00 0.00 24 990.0
20260508113529 61 174 9.0 18.0 0.00 0.00 0.00 25 989.9
20260508112629 61 232 7.0 11.0 0.00 0.00 0.00 28 990.1
20260508111729 61 191 8.0 11.0 0.00 0.00 0.00 26 990.2
20260508110829 61 217 12.0 13.0 0.00 0.00 0.00 26 990.3
20260508105929 61 190 7.0 12.0 0.00 0.00 0.00 26 990.2
20260508104130 60 237 7.0 12.0 0.00 0.00 0.00 27 990.2
20260508103229 60 296 7.0 10.0 0.00 0.00 0.00 32 990.2
20260508102330 59 229 7.0 11.0 0.00 0.00 0.00 33 990.4
20260508101429 59 218 6.0 11.0 0.00 0.00 0.00 30 990.4
20260508100529 58 217 5.0 8.0 0.00 0.00 0.00 38 990.4
20260508095629 57 261 5.0 8.0 0.00 0.00 0.00 40 990.4
20260508094729 56 261 5.0 7.0 0.00 0.00 0.00 42 990.6
20260508093830 54 300 5.0 9.0 0.00 0.00 0.00 44 990.7
20260508092929 54 275 6.0 9.0 0.00 0.00 0.00 44 990.7
20260508092029 54 286 5.0 6.0 0.00 0.00 0.00 45 990.7
20260508091129 54 278 5.0 8.0 0.00 0.00 0.00 46 990.7
20260508090229 52 280 6.0 7.0 0.00 0.00 0.00 44 990.9
20260508085330 54 288 5.0 8.0 0.00 0.00 0.00 44 990.7
20260508084429 53 294 4.0 8.0 0.00 0.00 0.00 45 990.9
20260508083529 52 304 5.0 7.0 0.00 0.00 0.00 46 990.9
20260508080830 53 273 3.0 5.0 0.00 0.00 0.00 48 990.9
20260508075929 53 268 3.0 5.0 0.00 0.00 0.00 49 990.8
20260508074129 53 288 4.0 5.0 0.00 0.00 0.00 48 990.8
20260508072330 52 278 3.0 4.0 0.00 0.00 0.00 45 990.9
20260508070529 51 327 3.0 4.0 0.00 0.00 0.00 50 990.6
20260508065629 51 11 3.0 4.0 0.00 0.00 0.00 51 990.5
20260508063830 47 50 4.0 4.0 0.00 0.00 0.00 55 990.6
20260508062929 46 50 4.0 4.0 0.00 0.00 0.00 55 990.5
20260508062029 46 32 4.0 4.0 0.00 0.00 0.00 58 990.7
20260508061129 44 1 5.0 5.0 0.00 0.00 0.00 60 990.7
20260508060229 43 17 4.0 5.0 0.00 0.00 0.00 61 990.6
20260508055329 43 25 3.0 4.0 0.00 0.00 0.00 61 990.7
20260508051729 38 37 4.0 4.0 0.00 0.00 0.00 67 990.3
20260508050830 38 41 3.0 4.0 0.00 0.00 0.00 68 990.3
20260508045929 37 25 4.0 5.0 0.00 0.00 0.00 69 990.3
20260508045029 36 45 5.0 7.0 0.00 0.00 0.00 70 990.3
20260508044129 36 50 6.0 8.0 0.00 0.00 0.00 70 990.3
20260508043229 36 54 5.0 7.0 0.00 0.00 0.00 69 990.2
20260508042330 35 79 5.0 8.0 0.00 0.00 0.00 69 990.1
20260508041429 35 89 5.0 7.0 0.00 0.00 0.00 70 990.1
20260508040529 35 73 5.0 7.0 0.00 0.00 0.00 70 990.1
20260508035629 35 78 5.0 7.0 0.00 0.00 0.00 70 990.0
20260508033830 34 79 5.0 6.0 0.00 0.00 0.00 72 989.9
20260508032929 33 95 5.0 8.0 0.00 0.00 0.00 73 989.9
20260508032030 33 84 4.0 5.0 0.00 0.00 0.00 75 989.8
20260508031129 31 86 4.0 5.0 0.00 0.00 0.00 75 989.7
20260508030229 31 80 5.0 8.0 0.00 0.00 0.00 76 989.6
20260508025329 31 82 5.0 8.0 0.00 0.00 0.00 77 989.5
20260508024429 31 90 5.0 6.0 0.00 0.00 0.00 76 989.5
20260508023530 31 77 6.0 6.0 0.00 0.00 0.00 76 989.4
20260508022629 31 76 5.0 6.0 0.00 0.00 0.00 76 989.4
20260508021729 31 79 6.0 7.0 0.00 0.00 0.00 76 989.3
20260508015929 32 90 5.0 7.0 0.00 0.00 0.00 75 989.2
20260508015029 32 88 6.0 8.0 0.00 0.00 0.00 74 989.1
20260508014129 32 84 6.0 8.0 0.00 0.00 0.00 74 989.2
20260508013230 32 86 5.0 6.0 0.00 0.00 0.00 73 989.3
20260508012329 33 77 5.0 5.0 0.00 0.00 0.00 73 989.2
20260508011429 33 90 4.0 5.0 0.00 0.00 0.00 73 989.1
20260507233530 36 68 5.0 8.0 0.00 0.00 0.00 69 988.4
20260507232630 36 78 4.0 6.0 0.00 0.00 0.00 69 988.3
20260507231729 36 79 4.0 5.0 0.00 0.00 0.00 69 988.3
20260507230830 36 90 4.0 4.0 0.00 0.00 0.00 69 988.2
20260507225929 36 75 4.0 6.0 0.00 0.00 0.00 69 988.1
20260507225029 36 66 4.0 5.0 0.00 0.00 0.00 69 988.0
20260507224130 37 55 5.0 6.0 0.00 0.00 0.00 69 988.0
20260507223229 37 83 5.0 7.0 0.00 0.00 0.00 69 987.7
20260507222330 37 90 5.0 7.0 0.00 0.00 0.00 68 987.7
20260507221429 37 92 4.0 6.0 0.00 0.00 0.00 67 987.5
20260507220529 38 90 4.0 7.0 0.00 0.00 0.00 66 987.6
20260507215630 38 78 5.0 7.0 0.00 0.00 0.00 65 987.4
20260507214729 39 64 4.0 6.0 0.00 0.00 0.00 64 987.6
20260507213831 39 64 6.0 7.0 0.00 0.00 0.00 62 987.4
20260507212930 40 55 5.0 5.0 0.00 0.00 0.00 61 987.3
20260507211131 40 54 4.0 4.0 0.00 0.00 0.00 57 987.0
20260507205331 41 73 4.0 5.0 0.00 0.00 0.00 52 986.7
20260507204429 41 75 4.0 6.0 0.00 0.00 0.00 50 986.6
20260507202629 42 44 4.0 5.0 0.00 0.00 0.00 46 986.5
20260507201729 43 59 4.0 5.0 0.00 0.00 0.00 43 986.2
20260507200831 44 71 3.0 5.0 0.00 0.00 0.00 39 986.1
20260507195930 45 51 3.0 6.0 0.00 0.00 0.00 35 986.1
20260507194129 48 38 3.0 8.0 0.00 0.00 0.00 26 985.9
20260507193230 49 67 2.0 4.0 0.00 0.00 0.00 23 985.8
20260507192330 49 119 1.0 2.0 0.00 0.00 0.00 22 985.5
20260507191429 51 100 1.0 3.0 0.00 0.00 0.00 21 985.4
20260507190529 53 121 1.0 2.0 0.00 0.00 0.00 19 985.1
20260507185631 53 89 1.0 2.0 0.00 0.00 0.00 18 985.2
20260507184729 55 31 2.0 4.0 0.00 0.00 0.00 18 985.1
20260507183831 56 353 1.0 2.0 0.00 0.00 0.00 17 985.0
20260507182930 56 352 2.0 3.0 0.00 0.00 0.00 16 985.0
20260507182029 57 329 2.0 2.0 0.00 0.00 0.00 15 984.8
20260507181129 57 316 2.0 4.0 0.00 0.00 0.00 16 984.7
20260507180229 57 326 3.0 5.0 0.00 0.00 0.00 16 984.7
20260507175330 56 313 6.0 8.0 0.00 0.00 0.00 16 984.7
20260507174429 57 312 5.0 6.0 0.00 0.00 0.00 16 984.5
20260507172630 58 307 3.0 5.0 0.00 0.00 0.00 15 984.5
20260507170831 58 311 4.0 8.0 0.00 0.00 0.00 14 984.2
20260507165930 58 287 5.0 8.0 0.00 0.00 0.00 15 984.3
20260507163229 59 210 6.0 9.0 0.00 0.00 0.00 14 984.2
20260507162331 59 267 6.0 9.0 0.00 0.00 0.00 13 984.0
20260507161429 59 244 7.0 8.0 0.00 0.00 0.00 14 984.0
20260507160530 58 229 7.0 9.0 0.00 0.00 0.00 14 983.9
20260507154730 58 233 8.0 11.0 0.00 0.00 0.00 14 983.7
20260507153831 59 242 5.0 8.0 0.00 0.00 0.00 15 983.8
20260507152030 58 204 8.0 15.0 0.00 0.00 0.00 14 983.6